Regional Weather Roundup
Issued by NWS

Home | Current Version | Previous Version | Text Only | Print | Product List | Glossary On
Versions: 1 2 3 4 5 6 7 8 9 10 11 12 13 14 15 16 17 18 19 20 21 22 23 24 25 26 27 28 29 30 31 32 33 34 35 36 37 38 39 40 41 42 43 44 45 46 47 48 49 50
000
ASUS42 KFFC 252303
RWRGA
WEATHER ROUNDUP FOR GEORGIA
NATIONAL WEATHER SERVICE PEACHTREE CITY GA
600 PM EST TUE NOV 25 2014

NOTE: "FAIR" INDICATES FEW OR NO CLOUDS BELOW 12,000 FEET WITH NO
SIGNIFICANT WEATHER AND/OR OBSTRUCTIONS TO VISIBILITY.

* = USE WITH CAUTION. THE STATIONS MARKED WITH AN ASTERISK MAY NOT
REPORT WEATHER SUCH AS PRECIPITATION, FOG, OR THUNDER AND ARE NOT
QUALITY CONTROLLED BY NWS.

THE REMARK "TC" DENOTES TEMPERATURE READING IN DEGREES CELSIUS.

GAZ001>058-260000-
NORTH GEORGIA

CITY           SKY/WX    TMP DP  RH WIND       PRES   REMARKS
ATLANTA        CLOUDY    56  29  35 NW7       30.02R
ATHENS         CLOUDY    50  43  77 CALM      30.02F
CHAMBLEE       CLOUDY    55  29  36 NW5       30.02R
PEACHTREE CITY CLOUDY    53  42  66 CALM      30.02F
ROME           MOCLDY    54  33  45 NE3       30.01S
WEST ATLANTA   CLOUDY    55  31  39 CALM      30.01F
GAINESVILLE    CLOUDY    54  35  48 SE6       30.02S
CARTERSVILLE   CLOUDY    55  28  35 N3        30.03S


CITY           SKY/WX    TMP DP  RH WIND       PRES   REMARKS
DALTON*        PTCLDY    52  32  46 N3        30.03S
LAWRENCEVILLE* CLEAR     54  30  40 S5        30.01S
MARIETTA       CLOUDY    55  29  37 NW5       30.00F
KENNESAW*      MOCLDY    54  27  35 N5        30.05R
$$

GAZ059>098-102>109-260000-
CENTRAL GEORGIA

CITY           SKY/WX    TMP DP  RH WIND       PRES   REMARKS
AUGUSTA-BUSH   CLOUDY    54  52  93 N7        30.02R
AUGUSTA-DANIEL LGT RAIN  54  51  90 N6        30.02R
COLUMBUS       CLOUDY    53  38  56 S3        30.06R
MACON          LGT RAIN  49  48  97 NW5       30.05R
ROBINS AFB     LGT RAIN  51  47  86 NW5       30.02R


CITY           SKY/WX    TMP DP  RH WIND       PRES   REMARKS
LAGRANGE*      CLOUDY    55  46  71 CALM      30.04R
SYLVANIA*      RAIN      56  55  94 CALM      30.01S
MILLEDGEVILLE* LGT RAIN  52  52 100 CALM      30.04R
$$

GAZ099>101-110>166-260000-
SOUTH GEORGIA

CITY           SKY/WX    TMP DP  RH WIND       PRES   REMARKS
SAVANNAH       LGT RAIN  60  57  89 CALM      30.01S
VALDOSTA       LGT RAIN  54  52  93 VRB6      30.01R FOG
ALMA           CLOUDY    51  50  96 NE3       29.99S
ST SIMONS      RAIN      62  61  96 N7        29.97F FOG
FT STEWART     LGT RAIN  56  55  93 NE6       29.98S
ALBANY         CLOUDY    50  47  89 N5        30.07R
HUNTER AFB     LGT RAIN  60  60 100 N5        29.98F VSB 1
MOODY AFB      LGT RAIN  52  50  93 N10       30.01R
BRUNSWICK      CLOUDY    63  61  94 NE3       29.98F


CITY           SKY/WX    TMP DP  RH WIND       PRES   REMARKS
BAINBRIDGE*    LGT RAIN  54  52  94 N7        30.03S
MOULTRIE*      RAIN      52  52 100 NW6       30.04R
VIDALIA*       CLOUDY    52  50  93 CALM      30.01R
WAYCROSS*      CLOUDY    58  56  93 NE5       30.00R
DOUGLAS*       RAIN      54  52  94 N3        30.02R
$$



USA.gov is the U.S. government's official web portal to all federal, state and local government web resources and services.